Wind_Speed
108 103 103 100 94 91 87 85 82 73 72 72 71 61 67 67 66 66 63 60 58 54 51 48 50 48 46
116 110 107 104 99 90 93 87 85 84 78 71 72 65 64 61 73 68 62 59 58 55 52 50 51 50 48
127 118 111 109 104 100 93 82 80 83 79 72 72 70 67 61 70 71 64 59 57 56 54 51 51 51 49
131 128 117 110 109 106 98 90 85 83 79 74 71 71 63 64 67 69 70 61 60 57 57 54 53 53 52
126 131 124 112 110 112 109 103 92 82 83 78 74 70 68 65 60 52 71 66 60 60 59 56 55 54 53
105 121 127 114 111 115 114 113 111 98 94 91 75 71 69 69 69 60 62 65 69 64 64 60 59 57 55
94 104 116 117 111 115 119 119 115 111 105 101 90 80 73 76 73 65 60 64 69 67 62 59 61 58 58
88 93 104 112 113 117 122 123 120 116 115 110 103 92 82 74 74 68 62 61 66 71 76 70 62 61 61
80 88 97 106 112 117 123 127 124 121 119 115 105 104 97 87 72 71 64 65 62 69 78 73 75 68 68
70 81 90 99 108 115 120 125 126 125 119 117 111 108 105 100 82 72 67 68 65 63 69 75 77 74 71
59 70 82 92 101 107 117 123 124 125 116 116 116 108 107 103 100 89 79 70 68 60 61 64 69 73 78
55 58 70 82 91 100 103 119 122 123 114 113 117 113 103 93 92 92 90 82 74 70 64 66 68 72 72
51 52 56 69 83 94 98 107 121 122 121 114 114 112 101 94 84 83 86 87 78 69 64 65 67 67 70
48 50 54 59 71 85 95 96 112 122 123 117 112 111 107 103 101 96 92 92 80 73 68 63 60 61 62
47 49 52 57 62 72 89 94 102 118 123 122 115 113 109 108 101 93 88 87 78 76 79 64 58 61 62
52 53 54 58 61 67 77 91 97 106 121 123 118 116 113 104 100 96 89 74 74 76 76 73 69 59 58
53 58 63 64 60 63 69 79 92 101 110 122 122 118 116 113 110 102 87 82 73 73 82 81 77 76 75
Wind_Direction
244 242 244 244 245 245 243 244 246 244 246 246 248 254 252 247 250 249 249 249 249 249 248 246 245 243 246
243 241 240 240 241 240 245 242 244 245 246 246 242 246 244 251 248 246 245 246 247 245 245 243 243 243 245
241 241 239 237 236 237 237 239 238 242 244 245 240 242 249 258 251 240 242 244 244 243 242 240 242 243 244
241 240 239 235 232 231 230 229 235 234 238 232 233 239 241 253 249 245 236 242 242 242 243 240 240 242 244
241 240 238 234 229 229 228 227 223 225 233 225 227 232 236 241 237 241 235 235 241 241 241 242 242 241 243
238 238 237 233 226 225 227 225 225 226 229 229 223 226 234 234 237 242 236 241 238 243 242 240 242 241 241
235 234 235 232 226 222 224 226 225 227 227 228 229 229 234 237 236 238 237 238 239 238 242 244 243 239 240
235 231 232 230 226 220 220 223 224 224 227 227 230 229 231 232 239 232 236 240 238 240 239 238 241 239 239
238 233 230 230 227 222 219 220 222 223 224 227 228 231 230 226 231 237 240 244 237 240 238 240 237 238 239
244 237 233 230 228 225 221 220 219 221 223 225 224 228 228 227 232 232 237 239 237 236 240 243 240 235 236
249 243 237 233 230 229 222 221 220 219 220 223 223 225 228 229 230 232 233 231 230 231 238 238 235 233 235
254 248 243 238 233 232 228 223 221 218 218 220 221 223 224 223 227 229 229 230 228 231 241 240 237 238 239
255 253 248 243 238 234 231 226 222 218 218 217 219 219 219 217 217 217 222 226 227 240 239 239 235 237 235
258 253 249 245 241 237 235 229 225 219 218 216 215 217 216 213 218 221 224 226 230 229 239 235 235 235 237
261 255 252 248 245 241 237 232 227 221 219 217 215 215 215 213 216 219 224 223 225 224 228 232 236 239 236
265 265 258 251 247 244 241 236 231 223 220 217 215 214 213 213 208 214 213 212 217 218 226 230 230 232 232
261 261 262 262 256 246 243 240 233 226 222 218 217 215 209 204 202 206 214 212 214 222 227 230 238 236 242
Height
5584 5594 5598 5610 5621 5629 5639 5647 5653 5662 5671 5677 5682 5685 5691 5698 5705 5713 5719 5724 5728 5732 5736 5741 5745 5748 5751
5549 5562 5571 5578 5595 5606 5613 5624 5631 5641 5650 5657 5665 5668 5676 5682 5688 5696 5703 5709 5714 5718 5723 5728 5732 5736 5740
5511 5525 5539 5551 5566 5579 5591 5602 5611 5618 5629 5637 5644 5650 5655 5665 5670 5678 5686 5693 5699 5704 5710 5715 5721 5725 5728
5470 5488 5503 5519 5534 5551 5565 5576 5590 5598 5607 5619 5626 5632 5639 5650 5655 5659 5668 5677 5683 5690 5695 5701 5707 5712 5716
5426 5446 5466 5482 5499 5515 5534 5547 5565 5577 5586 5594 5605 5612 5619 5629 5638 5642 5650 5660 5667 5675 5681 5687 5694 5698 5703
5390 5403 5424 5445 5461 5480 5498 5515 5539 5553 5558 5574 5581 5590 5600 5610 5620 5628 5635 5643 5650 5659 5666 5672 5679 5685 5688
5355 5369 5385 5406 5431 5449 5462 5482 5505 5522 5529 5547 5561 5571 5580 5589 5598 5609 5616 5624 5633 5641 5651 5657 5664 5669 5674
5327 5346 5353 5371 5388 5409 5428 5444 5469 5491 5501 5520 5537 5551 5563 5570 5579 5588 5596 5606 5614 5622 5632 5640 5647 5653 5658
5302 5314 5324 5336 5354 5371 5391 5408 5436 5458 5471 5490 5516 5527 5538 5553 5560 5570 5577 5587 5595 5603 5611 5621 5629 5636 5641
5281 5289 5298 5308 5320 5336 5361 5375 5402 5421 5447 5463 5490 5496 5511 5529 5540 5553 5560 5570 5578 5584 5593 5601 5608 5615 5623
5264 5270 5276 5284 5295 5307 5328 5347 5368 5391 5420 5429 5454 5468 5482 5505 5520 5532 5544 5554 5560 5566 5575 5583 5590 5597 5605
5247 5254 5259 5265 5276 5283 5300 5315 5335 5365 5383 5395 5420 5439 5457 5479 5495 5509 5524 5535 5540 5549 5558 5566 5572 5580 5588
5233 5238 5243 5247 5250 5256 5267 5284 5303 5333 5347 5369 5390 5412 5430 5454 5472 5485 5500 5510 5521 5532 5541 5547 5554 5562 5570
5218 5221 5223 5225 5229 5235 5242 5260 5274 5301 5319 5342 5364 5380 5403 5429 5444 5462 5476 5486 5502 5514 5524 5531 5537 5543 5554
5201 5204 5206 5207 5212 5216 5220 5233 5244 5272 5289 5314 5339 5354 5376 5398 5416 5438 5453 5469 5484 5494 5505 5514 5522 5530 5538
5184 5185 5186 5189 5192 5194 5198 5205 5220 5242 5261 5284 5307 5326 5346 5367 5393 5416 5433 5446 5461 5471 5485 5496 5505 5514 5523
5168 5167 5166 5166 5169 5173 5176 5181 5196 5217 5236 5257 5275 5295 5317 5340 5374 5393 5413 5428 5441 5453 5464 5476 5490 5499 5509